{"data":{"norad_id":55144,"intl_designator":"2023-004E","name":"ONEWEB-0544","alt_names":[],"object_type":"PAYLOAD","status":"ACTIVE","operator":null,"country":"UK","launch_date":"2023-01-10","launch_site_code":"AFETR","launch_vehicle":null,"mission":null,"orbit_class":"UNKNOWN","rcs_meters":null,"size_class":null,"mass_kg":null,"dimensions":null,"purposes":["comms"],"wikipedia_slug":null,"has_3d_model":false,"image_url":null,"decayed_at":null,"tle_current":{"epoch":"2026-05-25T02:10:33.811104Z","epoch_age_seconds":60544,"freshness":"FRESH","line1":"1 55144U 23004E   26145.09066911  .00000025  00000+0  29795-4 0  9990","line2":"2 55144  87.9159 340.0676 0001615  87.4309 272.7008 13.18686101166655","mean_motion":13.18686101,"eccentricity":0.0001615,"inclination_deg":87.9159,"raan_deg":340.0676,"arg_perigee_deg":87.4309,"mean_anomaly_deg":272.7008,"bstar":2.9795e-5,"rev_number":16665,"period_min":109.19960397763,"perigee_km":1188.5205278659,"apogee_km":1190.9649530221,"semimajor_km":7567.879740444,"source":"CELESTRAK","updated_at":"2026-05-25T13:38:22.639898Z"}}}